OBJECT A, 69582

Orbit data source: Space-Track

You're viewing an Uncataloged Satellite

Recently launched and/or uncataloged satellites may have evolving metadata. Metadata may include but not limited to: Owner, Maufacturer, Bus, Motor, and Mission.

OBJECT A, 69582 is a satellite owned by Centispace (CN) in LEO that was launched on Wed, 17 Jun 2026 UTC via a KUAIZHOU-11 launch vehicle from the Jiuquan Satellite Launch Center, China (JSC). Unknown objects in Earth's orbit typically refer to objects detected orbiting the Earth but have not yet been identified or cataloged. These objects could be anything from previously untracked satellites, spent rocket stages, debris from satellite collisions, or even natural meteoroids temporarily captured by Earth's gravity.

Loading next visibility...
Identifier
69582, 2026-138A
Orbit
LEO
Country
Flag of CNCN / PRC
Related business
Manufacturer
HITSAT
Mission
Operational spacecraft
Bus & Motor
WK01H, Unknown motor
Mass
140 kg wet, 140 kg dry
Launch date (UTC)
2026-06-17 (2 days ago)
Launch vehicle
KUAIZHOU-11
Launch site
Jiuquan Satellite Launch Center, China (JSC)
Object type
Unknown
Shape & HBR
Unknown
Radar Cross Section
RCS unknown

Expand to show TLE details & history
Last TLE update: 4 hours ago

TLE from 4 hours ago
0 OBJECT A
1 69582U 26138A   26170.61293649 -.00000180  00000-0 -13473-4 0  9999
2 69582  55.1436 272.1975 0009885 281.4248  78.5616 14.15547540   366
Epoch: 2026-06-19T14:42Z
TLE epoch observation values (Epoch: 2026-06-19T14:42:37.712Z)
Latitude
-0.00002°
Longitude
143.70095°
Altitude
840.096 km
Speed
7.434 km/s
True Right ascension
18h 08m 47s
True Declination
0° 00' 00"
Sunlit
Object was in full shadow at epoch
Visualization orbit readout
Latitude
Unknown
Longitude
Unknown
Altitude
Unknown
Speed
Unknown
Apparent Right ascension
Unknown
Apparent Declination
Unknown
Sunlit
N/A
Visualization observer readout
Local Sidereal Time
05:59:05
Azimuth
Unknown
Elevation
Unknown
Doppler factor
Unknown
Orbital elements
Apogee altitude
847.529 km
Perigee altitude
833.258 km
Semi-major axis
7,218.53 km
Eccentricity
0.00099
Inclination
55.1436°
RAAN
272.1975°
Arg. of periapsis
281.4248°
True anomaly
78.67265°
Mean anomaly
78.5616°
Eccentric anomaly
78.61712°
Mean motion
3.53891 °/min
Orbital period
101.73 mins
BSTAR
-0.000013473
Loading maneuver chart data...
Computing Atmospheric mass density...
Loading historical data...
Loading historical data...
Loading historical data...
Loading historical data...
Loading historical data...
Loading historical data...
Loading historical data...

Documentation

Showing up to 5 results
|